This is the latest recevied weather packets stored in our database for station/object BV5AB-13. If no packets are shown the sender has not sent any weather packets the latest 1 day(s).
| Time | Temp. | Humidity | Pressure | Rain* | Wind** | Luminosity | Snow |
|---|---|---|---|---|---|---|---|
| 1778045824 | 29.44° C | 67% | 1002 hPa | 0 mm | - | - | - |
| 1778044624 | 29.44° C | 64% | 1002.2 hPa | 0 mm | - | - | - |
| 1778042824 | 29.44° C | 68% | 1002.4 hPa | 0 mm | - | - | - |
| 1778041023 | 28.89° C | 58% | 1002.7 hPa | 0 mm | - | - | - |
| 1778039824 | 28.89° C | 66% | 1002.9 hPa | 0 mm | - | - | - |
| 1778039223 | 28.33° C | 66% | 1003.1 hPa | 0 mm | - | - | - |
| 1778038623 | 27.78° C | 63% | 1003.3 hPa | 0 mm | - | - | - |
| 1778038024 | 27.78° C | 66% | 1003.4 hPa | 0 mm | - | - | - |
| 1778037425 | 27.22° C | 66% | 1003.5 hPa | 0 mm | - | - | - |
| 1778036824 | 26.67° C | 69% | 1003.5 hPa | 0 mm | - | - | - |
| 1778036223 | 26.11° C | 69% | 1003.5 hPa | 0 mm | - | - | - |
| 1778035623 | 26.67° C | 71% | 1003.6 hPa | 0 mm | - | - | - |
| 1778034423 | 25.56° C | 73% | 1003.9 hPa | 0 mm | - | - | - |
| 1778033224 | 25° C | 75% | 1004 hPa | 0 mm | - | - | - |
| 1778032623 | 25° C | 78% | 1004.1 hPa | 0 mm | - | - | - |
| 1778030224 | 23.89° C | 83% | 1004.2 hPa | 0 mm | - | - | - |
| 1778029624 | 23.89° C | 84% | 1004.2 hPa | 0 mm | - | - | - |
| 1778028424 | 23.33° C | 88% | 1004.2 hPa | 0 mm | - | - | - |
| 1778027823 | 22.78° C | 88% | 1004.3 hPa | 0 mm | - | - | - |
| 1778027223 | 22.78° C | 91% | 1004.3 hPa | 0 mm | - | - | - |
| 1778026624 | 22.22° C | 93% | 1004.2 hPa | 0 mm | - | - | - |
| 1778025425 | 21.67° C | 93% | 1004.1 hPa | 0 mm | - | - | - |
| 1778020624 | 21.11° C | 98% | 1003.8 hPa | 0.51 mm | - | - | - |
| 1778016424 | 21.11° C | 98% | 1003.7 hPa | 3.56 mm | - | - | - |
| 1778015825 | 21.11° C | 98% | 1003.7 hPa | 5.59 mm | - | - | - |
* Rain latest hour (hover to see other rain measurements)
** Current wind speed in m/s (hover to see current wind gust speed)